Cloud_Cover
0 0 0 98 100 100 100 100 73 100 100 99 8 100 100 100 100 100 16 26 63 100 100 100 60 5 20 2 0 4 0 2 5 4 3 4 38 100 100 100 88 37 5 8 5
0 0 0 14 100 100 100 100 100 100 100 100 62 100 100 100 100 100 6 9 6 100 100 100 100 7 98 7 14 0 6 4 0 4 0 5 5 98 100 93 82 100 81 9 5
0 0 0 0 25 100 100 100 100 100 100 98 100 100 100 100 100 100 12 73 5 100 100 100 88 72 100 78 5 4 5 2 0 0 2 4 26 80 10 41 81 27 36 84 5
0 0 0 0 0 14 100 100 100 100 97 6 16 12 100 100 100 98 41 97 11 100 100 100 100 100 100 78 70 5 0 2 0 2 0 5 6 5 1 10 3 3 5 5 4
0 0 0 0 0 0 4 73 100 87 100 49 5 4 58 100 100 100 67 100 100 100 100 100 100 100 100 94 99 5 4 2 0 0 0 2 34 6 5 43 4 5 30 5 2
0 0 0 0 0 0 0 0 13 6 96 100 80 3 4 100 100 100 100 93 100 50 100 100 100 100 100 100 100 83 5 1 0 0 0 0 7 0 4 42 1 2 5 4 5
0 0 0 0 0 0 0 0 0 0 62 25 15 5 5 100 100 100 100 100 100 14 100 100 100 100 100 100 100 99 1 0 0 0 0 0 1 0 1 4 8 5 5 14 5
0 0 0 0 0 0 0 0 0 0 0 0 57 100 93 100 100 100 100 100 100 40 100 100 100 100 100 100 100 62 0 0 5 0 1 4 0 4 0 0 5 5 5 6 36
3 4 1 0 0 0 0 0 0 0 0 1 93 100 100 89 100 100 100 100 100 45 100 88 100 100 100 100 97 9 5 1 4 4 0 1 0 0 0 2 5 41 56 28 31
5 5 5 5 0 0 0 0 0 0 3 94 92 100 100 40 100 100 100 100 100 38 41 78 98 100 100 100 100 46 10 35 75 4 0 0 3 1 4 0 5 5 5 32 68
5 5 5 5 5 0 0 0 0 2 5 68 100 95 100 100 15 100 100 100 98 99 10 61 30 100 100 100 100 23 100 100 27 0 4 0 5 5 0 4 4 5 5 71 17
5 5 5 5 5 2 0 0 0 14 10 5 33 38 100 100 100 100 100 100 100 100 63 8 52 100 100 100 100 53 62 88 36 5 6 0 43 57 2 0 0 4 5 30 5
2 5 13 5 6 5 0 0 0 0 2 1 0 7 75 100 100 100 100 100 100 100 100 73 86 100 100 92 100 100 59 13 5 1 5 27 46 11 12 3 5 5 5 5 18
0 4 5 5 37 5 0 0 0 0 0 0 0 0 6 18 100 100 100 49 94 100 100 100 100 100 82 96 100 97 5 5 5 5 8 5 1 4 25 20 5 5 20 5 5
0 5 0 5 5 5 0 0 0 0 0 0 0 0 0 0 7 100 95 50 38 100 100 100 100 100 56 53 97 53 5 68 9 3 4 5 0 5 8 31 6 5 5 5 5
3 5 7 1 0 4 1 0 0 0 0 0 0 0 0 0 84 100 100 91 16 98 100 100 100 98 5 53 76 56 34 81 5 5 5 0 5 17 22 5 5 8 5 5 5
3 7 71 0 0 2 0 0 0 0 0 4 0 0 0 0 4 31 100 100 100 54 96 100 100 100 18 89 28 70 51 24 5 11 5 3 3 5 5 5 5 5 5 5 5
92 100 6 5 0 0 0 0 0 5 0 0 0 0 0 0 0 0 7 100 100 100 99 100 100 100 100 100 98 10 8 6 78 23 5 2 10 5 7 0 5 6 5 5 5
74 2 0 5 0 0 0 0 0 0 0 0 0 0 0 0 0 0 0 46 100 100 100 100 100 100 100 100 100 46 8 44 6 5 5 5 5 5 2 3 5 5 5 5 5
36 5 2 0 0 0 2 0 0 2 5 5 5 5 5 5 5 5 2 0 70 100 100 100 100 100 100 100 100 5 19 53 35 12 5 5 4 5 13 5 5 12 5 5 5
5 5 0 0 0 0 0 0 4 0 0 2 2 5 5 12 16 5 65 15 0 4 100 100 100 100 100 100 100 57 5 60 12 5 34 25 5 22 5 5 5 9 5 5 5
5 4 0 0 0 1 1 0 16 0 1 0 0 0 0 5 5 5 5 5 5 4 2 100 100 100 100 100 100 100 77 28 41 27 70 47 73 5 54 26 6 5 5 5 5
31 26 0 0 0 0 0 0 5 0 5 5 0 2 5 2 3 0 0 0 0 5 5 4 100 100 100 100 100 99 93 15 68 40 23 19 98 70 24 5 5 5 5 5 5
82 39 5 0 0 0 0 0 0 0 1 5 4 5 4 2 0 0 4 41 87 20 5 5 96 100 100 100 100 98 87 75 53 24 16 71 70 28 66 5 12 5 5 5 5
97 72 89 6 0 0 0 5 3 0 0 5 5 5 5 0 2 5 44 100 100 100 96 80 100 100 100 100 100 48 73 34 54 42 6 92 44 86 10 6 20 5 5 5 5
100 97 100 100 11 0 0 5 5 5 5 5 71 24 9 4 85 98 100 100 100 100 99 100 100 100 100 100 100 100 41 40 64 29 41 74 73 68 5 5 53 43 6 5 5
100 98 71 100 73 5 3 5 5 12 5 5 65 100 97 46 94 27 40 100 100 92 100 100 100 100 100 100 100 100 64 70 22 58 5 62 67 67 12 39 91 99 5 5 5